[[{"header":{"parameterUnit":"m.s-1","parameterCategory":1,"la1":30.2991,"la2":30.254,"lo1":-89.0895,"lo2":-89.0444,"dy":0.0017,"dx":0.0017,"nx":28,"ny":28,"refTime":"2023-09-19T21:00:00:Z","depth":0,"parameterNumber":2,"parameterNumberName":"U-component_of_WINDS"},"data":[0,0,0,0,0,0,0,0,0,0,0,0,0,0,0,0,0,0,0,0,0,0,0,0,0,0,0,0,0,0,0,0,0,0,0,0,0,0,0,0,0,0,0,0,0,0,0,0,0,0,0,0,0,0,0,0,0,0,-4.9381,-4.9382,0,-4.9493,-4.9494,-4.9496,-4.9346,-4.934,-4.9335,-4.933,-4.9449,-4.9457,-4.9465,0,0,0,0,0,0,0,0,0,0,0,0,0,-4.9039,-4.9046,-4.9381,-4.9382,-4.9383,-4.9493,-4.9494,-4.9496,-4.9347,-4.934,-4.9334,-4.9327,-4.9446,-4.9456,-4.9466,0,0,0,0,0,0,0,0,0,0,0,0,0,-4.9173,-4.9048,-4.938,-4.9322,-4.9318,-4.9493,-4.9495,-4.9496,-4.9348,-4.934,-4.9332,-4.9324,-4.9443,-4.9455,-4.9467,-4.9706,0,0,-4.9505,-4.951,0,0,0,0,0,0,0,0,-4.9166,-4.9186,-4.9329,-4.9326,-4.9322,-4.9397,-4.9417,-4.9567,-4.935,-4.9337,-4.933,-4.932,-4.9439,-4.9451,-4.949,-4.9711,-4.9716,-4.9506,-4.9513,-4.9519,-4.9522,0,0,0,0,0,0,0,-4.9157,-4.918,-4.9425,-4.9331,-4.9327,-4.9291,-4.9301,-4.9445,-4.9432,-4.9337,-4.9327,-4.9342,-4.9435,-4.9478,-4.9491,-4.9718,-4.9506,-4.9517,-4.9524,-4.9529,-5.0141,-5.0149,0,0,0,0,0,0,-4.9154,-4.9173,-4.9422,-4.9428,-4.9222,-4.9304,-4.9315,-4.9381,-4.943,-4.9429,-4.9349,-4.9334,-4.9461,-4.9477,-4.9495,-4.9778,-4.9519,-4.953,-4.9537,-5.0132,-5.0143,-5.0152,0,0,0,0,0,0,-4.9147,-4.9177,-4.9417,-4.9298,-4.9326,-4.9318,-4.9394,-4.9388,-4.9431,-4.9438,-4.9436,-4.9395,-4.9455,-4.9478,-4.9654,-4.978,-4.9536,-4.9547,-5.0122,-5.0135,-5.0148,-5.0346,0,0,0,0,0,0,-4.9138,-4.9176,-4.9266,-4.9301,-4.9333,-4.9574,-4.9402,-4.9396,-4.9452,-4.9434,-4.9481,-4.9481,-4.9451,-4.9637,-4.9666,-4.9792,-4.9557,-5.011,-5.0128,-5.0143,-5.0328,-5.0364,-5.0395,0,0,0,0,0,-4.9126,-4.9318,-4.9271,-4.9302,-4.9445,-4.9582,-4.96,-4.956,-4.9463,-4.9554,-4.9558,-4.948,-4.9761,-4.9656,-4.9688,-4.982,-5.0102,-5.0123,-5.0142,-5.0313,-5.0357,-5.0394,0,0,0,0,0,0,-4.93,-4.9322,-4.927,-4.9479,-4.953,-4.9556,-4.967,-4.9608,-4.9688,-4.9668,-4.9616,-4.9628,-4.9816,-4.9835,-4.9718,-5.0053,-4.9916,-4.9943,-5.0034,-5.0076,-5.0109,-5.0102,-4.9567,0,0,0,0,0,-4.9362,-4.947,-4.9484,-4.9667,-4.9694,-4.9678,-4.9736,-4.97,-4.9751,-4.9772,-4.979,-4.9843,-4.9943,-5.001,-5.0103,-5.0329,-5.0337,-5.0435,-5.0469,-5.0496,-5.0521,-5.0643,-5.0687,-5.0218,-5.0218,-5.0217,0,0,-4.9492,-4.9518,-4.9589,-4.9702,-4.9737,-4.9851,-4.9697,-4.9824,-4.9909,-4.9792,-4.9959,-4.9974,-5.003,-5.0233,-5.0323,-5.0254,-5.0652,-5.0522,-5.0544,-5.0554,-5.0668,-5.0712,-5.0752,-5.0231,-5.0229,-5.0227,0,0,-4.9788,-4.9818,-4.9974,-5.0011,-5.0065,-5.0053,-5.0091,-5.0127,-5.0132,-5.0298,-5.0213,-5.0313,-5.0486,-5.0529,-5.0574,-5.0885,-5.0816,-5.0917,-5.1093,-5.1212,-5.1249,-5.1281,-5.1393,-5.1434,-5.0941,-5.0942,-5.0942,0,-4.9944,-5.0111,-5.0062,-5.0195,-5.0248,-5.0145,-5.0303,-5.0342,-5.0425,-5.0463,-5.0385,-5.06,-5.063,-5.0841,-5.0917,-5.0956,-5.0998,-5.0912,-5.1247,-5.1279,-5.1309,-5.1415,-5.1457,-5.0953,-5.0952,-5.0951,-5.095,0,-5.03,-5.0418,-5.0537,-5.0618,-5.0683,-5.0829,-5.0802,-5.0874,-5.0833,-5.0829,-5.1,-5.1032,-5.113,-5.1177,-5.1138,-5.1383,-5.1339,-5.1255,-5.1116,-5.1366,-5.1465,-5.1506,-5.0971,-5.0966,-5.0963,-5.096,0,0,-5.0711,-5.0761,-5.0806,-5.0841,-5.0893,-5.0983,-5.1123,-5.1217,-5.1281,-5.134,-5.1457,-5.1606,-5.1528,-5.1579,-5.1543,-5.1648,-5.1893,-5.1551,-5.1551,-5.1614,-5.2166,-5.223,-5.2278,-5.1847,-5.1854,-5.186,-5.2162,0,-5.1008,-5.1249,-5.1208,-5.1443,-5.1551,-5.1455,-5.1577,-5.1622,-5.1622,-5.1714,-5.1714,-5.182,-5.1709,-5.1739,-5.1838,-5.1843,-5.2003,-5.182,-5.1957,-5.1962,-5.1947,-5.233,-5.2398,-5.2681,-5.22,-5.2206,-5.2211,0,-5.1387,-5.1459,-5.1705,-5.1738,-5.1782,-5.1893,-5.1975,-5.2064,-5.2114,-5.2106,-5.2162,-5.2108,-5.2248,-5.2106,-5.2299,-5.2175,-5.2228,-5.2239,-5.2249,-5.2262,-5.2103,-5.2354,-5.277,-5.2814,-5.2271,-5.2267,-5.2262,0,-5.1663,-5.1822,-5.1989,-5.2022,-5.2066,-5.2146,-5.2168,-5.2209,-5.2267,-5.2339,-5.2377,-5.2465,-5.2514,-5.2584,-5.2555,-5.2453,-5.2754,-5.2609,-5.2753,-5.2755,-5.2823,-5.2819,-5.3255,-5.2855,-5.2854,-5.2853,-5.2853,0,-5.2,-5.2154,-5.2114,-5.2217,-5.2387,-5.2338,-5.2508,-5.2519,-5.2556,-5.266,-5.2581,-5.2681,-5.2635,-5.2732,-5.271,-5.2874,-5.2896,-5.2895,-5.2888,-5.2903,-5.2904,-5.2939,-5.2919,-5.2865,-5.2862,-5.286,-5.2858,0,-5.2338,-5.2317,-5.2493,-5.2519,-5.2529,-5.2654,-5.2676,-5.2773,-5.2766,-5.2899,-5.2927,-5.2917,-5.3026,-5.3003,-5.3124,-5.3109,-5.3315,-5.3283,-5.3299,-5.3292,-5.3437,-5.3425,-5.3912,-5.3974,-5.3533,-5.3537,-5.3541,0,-5.2555,-5.2671,-5.2709,-5.2773,-5.28,-5.2904,-5.2963,-5.2919,-5.2984,-5.3048,-5.3138,-5.324,-5.3319,-5.3499,-5.3503,-5.3595,-5.3565,-5.3729,-5.3578,-5.359,-5.3569,-5.3563,-5.3575,-5.376,-5.3765,-5.3769,-5.3773,0,-5.2943,-5.2927,-5.3014,-5.3099,-5.3171,-5.3236,-5.3293,-5.335,-5.331,-5.3387,-5.3497,-5.3559,-5.3681,-5.3784,-5.3869,-5.3892,-5.3828,-5.382,-5.3858,-5.3876,-5.3881,-5.3881,-5.3382,-5.3809,-5.3806,-5.3803,-5.3801,-5.38,-5.3228,-5.3327,-5.3369,-5.3469,-5.3507,-5.3562,-5.3654,-5.3658,-5.3749,-5.3844,-5.3812,-5.3939,-5.3984,-5.4091,-5.4125,-5.4223,-5.4162,-5.4217,-5.4231,-5.4246,-5.4265,-5.3864,-5.4238,-5.4237,-5.4236,-5.4235,-5.4234,0,-5.3613,-5.3634,-5.3727,-5.3809,-5.3888,-5.3817,-5.3876,-5.3948,-5.4059,-5.4106,-5.4186,-5.4313,-5.4412,-5.4423,-5.4516,-5.4593,-5.4566,-5.4619,-5.4614,-5.4621,-5.4314,-5.4272,-5.464,-5.464,-5.464,-5.464,-5.464,-5.464,-5.3822,-5.3986,-5.3974,-5.4156,-5.4176,-5.4298,-5.4338,-5.4389,-5.4426,-5.4571,-5.4652,-5.4658,-5.4691,-5.4786,-5.4874,-5.4875,-5.4914,-5.498,-5.4969,-5.4683,-5.4642,-5.4604,-5.4564,-5.4988,-5.4989,-5.5268,-5.527,-5.5272]},{"header":{"parameterUnit":"m.s-1","parameterCategory":1,"la1":30.2991,"la2":30.254,"lo1":-89.0895,"lo2":-89.0444,"dy":0.0017,"dx":0.0017,"nx":28,"ny":28,"refTime":"2023-09-19T21:00:00:Z","depth":0,"parameterNumber":3,"parameterNumberName":"V-component_of_WINDS"},"data":[0,0,0,0,0,0,0,0,0,0,0,0,0,0,0,0,0,0,0,0,0,0,0,0,0,0,0,0,0,0,0,0,0,0,0,0,0,0,0,0,0,0,0,0,0,0,0,0,0,0,0,0,0,0,0,0,0,0,-3.4255,-3.4254,0,-3.4162,-3.4161,-3.4159,-3.4106,-3.4106,-3.4105,-3.4105,-3.4007,-3.4005,-3.4002,0,0,0,0,0,0,0,0,0,0,0,0,0,-3.4381,-3.4379,-3.4255,-3.4254,-3.4253,-3.4162,-3.416,-3.4159,-3.4106,-3.4106,-3.4105,-3.4105,-3.4008,-3.4005,-3.4002,0,0,0,0,0,0,0,0,0,0,0,0,0,-3.4311,-3.4379,-3.4255,-3.4215,-3.4211,-3.4162,-3.416,-3.4159,-3.4106,-3.4106,-3.4105,-3.4105,-3.4009,-3.4005,-3.4002,-3.3985,0,0,-3.3991,-3.3989,0,0,0,0,0,0,0,0,-3.4315,-3.4306,-3.4222,-3.4218,-3.4213,-3.4145,-3.4169,-3.41,-3.4106,-3.4146,-3.4105,-3.4105,-3.4053,-3.4046,-3.4029,-3.398,-3.3976,-3.399,-3.3988,-3.3986,-3.3985,0,0,0,0,0,0,0,-3.432,-3.431,-3.4218,-3.4221,-3.4215,-3.42,-3.419,-3.4156,-3.4102,-3.4142,-3.4138,-3.4128,-3.405,-3.4032,-3.4026,-3.3975,-3.399,-3.3987,-3.3985,-3.3983,-3.3901,-3.3901,0,0,0,0,0,0,-3.4332,-3.4315,-3.4221,-3.4215,-3.4264,-3.4198,-3.4186,-3.4167,-3.4102,-3.4092,-3.4128,-3.4126,-3.4039,-3.403,-3.4022,-3.3995,-3.3987,-3.3983,-3.3981,-3.3901,-3.3901,-3.3901,0,0,0,0,0,0,-3.4335,-3.4324,-3.4225,-3.4264,-3.425,-3.4196,-3.4175,-3.4165,-3.4147,-3.4092,-3.4081,-3.412,-3.4038,-3.4028,-3.3993,-3.3991,-3.3981,-3.3978,-3.3901,-3.3901,-3.3901,-3.3942,0,0,0,0,0,0,-3.4339,-3.4325,-3.432,-3.4264,-3.4248,-3.4199,-3.4175,-3.4164,-3.4142,-3.4137,-3.4081,-3.4072,-3.4037,-3.3999,-3.399,-3.3985,-3.3975,-3.3901,-3.3901,-3.3901,-3.394,-3.3943,-3.3945,0,0,0,0,0,-3.4343,-3.4336,-3.432,-3.4309,-3.4241,-3.42,-3.419,-3.4151,-3.4142,-3.4134,-3.4098,-3.4074,-3.3993,-3.3996,-3.3985,-3.398,-3.3901,-3.3901,-3.3901,-3.3939,-3.3943,-3.3945,0,0,0,0,0,0,-3.4394,-3.4328,-3.431,-3.4285,-3.4248,-3.4191,-3.4181,-3.4157,-3.4122,-3.4119,-3.4071,-3.4059,-3.4028,-3.4001,-3.4006,-3.3957,-3.3944,-3.3942,-3.3976,-3.3979,-3.3982,-3.3988,-3.3972,0,0,0,0,0,-3.4402,-3.4375,-3.4319,-3.4302,-3.4284,-3.4236,-3.4216,-3.4189,-3.4149,-3.4133,-3.4094,-3.4055,-3.402,-3.3998,-3.3963,-3.3936,-3.392,-3.3926,-3.3929,-3.3931,-3.3929,-3.3908,-3.3908,-3.3902,-3.3902,-3.3902,0,0,-3.4418,-3.4379,-3.4366,-3.4311,-3.4279,-3.425,-3.4223,-3.4195,-3.4172,-3.4128,-3.4093,-3.4063,-3.4015,-3.3983,-3.3967,-3.3959,-3.3927,-3.3931,-3.3933,-3.393,-3.3908,-3.3908,-3.3909,-3.3902,-3.3902,-3.3902,0,0,-3.4433,-3.4403,-3.4383,-3.4351,-3.4303,-3.427,-3.4265,-3.421,-3.4188,-3.4152,-3.4117,-3.4088,-3.4031,-3.3997,-3.3972,-3.3969,-3.3944,-3.3959,-3.3972,-3.3951,-3.3952,-3.3952,-3.3947,-3.3947,-3.3958,-3.3958,-3.3958,0,-3.4459,-3.4416,-3.4375,-3.4348,-3.4323,-3.4281,-3.4259,-3.423,-3.4173,-3.4155,-3.4147,-3.407,-3.4036,-3.3993,-3.3992,-3.3974,-3.3964,-3.3965,-3.3955,-3.3955,-3.3955,-3.3949,-3.3948,-3.396,-3.396,-3.3959,-3.3959,0,-3.4449,-3.4419,-3.4409,-3.4354,-3.4328,-3.4303,-3.4256,-3.4234,-3.4208,-3.4174,-3.4135,-3.4092,-3.4045,-3.4033,-3.4008,-3.3985,-3.3981,-3.3965,-3.3951,-3.3958,-3.3952,-3.395,-3.3963,-3.3962,-3.3961,-3.3961,0,0,-3.4495,-3.4415,-3.4412,-3.4384,-3.4327,-3.4301,-3.4273,-3.4227,-3.4208,-3.4169,-3.4141,-3.4091,-3.4074,-3.4046,-3.4016,-3.3998,-3.3993,-3.3983,-3.3981,-3.3984,-3.396,-3.3971,-3.397,-3.3976,-3.3976,-3.3975,-3.3963,0,-3.4499,-3.4447,-3.4407,-3.437,-3.4339,-3.4297,-3.4271,-3.4231,-3.4199,-3.4166,-3.4129,-3.4093,-3.4076,-3.4057,-3.4038,-3.3998,-3.3987,-3.3999,-3.3947,-3.3946,-3.3959,-3.3967,-3.398,-3.397,-3.396,-3.396,-3.396,0,-3.4498,-3.4459,-3.4419,-3.436,-3.4345,-3.4324,-3.4276,-3.4246,-3.4198,-3.4175,-3.4142,-3.411,-3.4074,-3.4063,-3.4011,-3.402,-3.3996,-3.3972,-3.3971,-3.3963,-3.3952,-3.3957,-3.3967,-3.3965,-3.3957,-3.3957,-3.3957,0,-3.4531,-3.4469,-3.4435,-3.4414,-3.4346,-3.433,-3.4301,-3.4253,-3.4226,-3.4184,-3.4165,-3.412,-3.4094,-3.4058,-3.4013,-3.401,-3.3964,-3.395,-3.3941,-3.3942,-3.3932,-3.3933,-3.3936,-3.3921,-3.3921,-3.3921,-3.3921,0,-3.4539,-3.4514,-3.4449,-3.4428,-3.4398,-3.4351,-3.4322,-3.4289,-3.4245,-3.4215,-3.4176,-3.4148,-3.4091,-3.4055,-3.4019,-3.3979,-3.3968,-3.3946,-3.3937,-3.3949,-3.3951,-3.3931,-3.393,-3.392,-3.392,-3.392,-3.392,0,-3.4571,-3.4526,-3.4486,-3.4424,-3.4408,-3.4388,-3.4333,-3.4309,-3.4274,-3.4235,-3.4223,-3.4166,-3.4121,-3.4072,-3.4011,-3.3987,-3.3947,-3.3935,-3.3964,-3.3958,-3.395,-3.395,-3.3938,-3.3933,-3.3924,-3.3924,-3.3924,0,-3.4578,-3.4558,-3.4493,-3.447,-3.4442,-3.4406,-3.4378,-3.4329,-3.4302,-3.4243,-3.4225,-3.4177,-3.4136,-3.4065,-3.4016,-3.3968,-3.3953,-3.3952,-3.3945,-3.3956,-3.3949,-3.395,-3.3946,-3.3954,-3.3954,-3.3954,-3.3955,0,-3.4594,-3.4572,-3.4535,-3.4488,-3.4456,-3.4417,-3.4376,-3.4359,-3.4302,-3.4272,-3.4225,-3.4193,-3.4129,-3.408,-3.4025,-3.3992,-3.3962,-3.3957,-3.3951,-3.3963,-3.3979,-3.3967,-3.3967,-3.3957,-3.3957,-3.3957,-3.3957,-3.3957,-3.4611,-3.459,-3.454,-3.4499,-3.4462,-3.4424,-3.4398,-3.4358,-3.4319,-3.4263,-3.4236,-3.4189,-3.4136,-3.4059,-3.4026,-3.3985,-3.3977,-3.397,-3.3968,-3.3966,-3.3968,-3.3987,-3.3975,-3.3975,-3.3975,-3.3975,-3.3975,0,-3.4623,-3.4588,-3.455,-3.4494,-3.446,-3.4436,-3.4388,-3.4361,-3.432,-3.4274,-3.4234,-3.4177,-3.4129,-3.4075,-3.4022,-3.4,-3.3985,-3.3987,-3.3988,-3.3979,-3.398,-3.3989,-3.4,-3.4,-3.4,-3.4,-3.4,-3.4,-3.4625,-3.4586,-3.4558,-3.45,-3.4464,-3.4418,-3.4392,-3.4355,-3.4318,-3.4258,-3.4217,-3.4183,-3.4132,-3.4075,-3.4027,-3.4012,-3.3993,-3.4,-3.398,-3.3982,-3.398,-3.3978,-3.3986,-3.3997,-3.3997,-3.3983,-3.3982,-3.3982]}]]